When you browse on this site, cookies collect data to enhance your experience and personalize the content and advertising you see.
Visit our Privacy Policy to learn more. By continuing to use the site, you agree to this use of cookies and data.
  • Em Portugal
  • Lista de países
  • Para 7 dias
  • Temperatura da água
  • Mapas de satélite
  • Mapa do tempo
  • Widgets de tempo
  • user-avatar
    Iniciar Sessão

    Previsão horária em Wladyslawek

    Hoje, 10 Dezembro, Segunda-feira

    Tempo Temperatura Precipitação Vento Pressão Humidade
    00:00 +4°C° 0.3 mm 4 m/s 730 mmHg 90%
    01:00 +4°C° 0 mm 4 m/s 731 mmHg 91%
    02:00 +2°C° 0.3 mm 5 m/s 731 mmHg 86%
    03:00 +2°C° 0.3 mm 6 m/s 732 mmHg 81%
    04:00 +2°C° 0.3 mm 7 m/s 732 mmHg 76%
    05:00 +2°C° 0 mm 6 m/s 733 mmHg 76%
    06:00 +2°C° 0 mm 6 m/s 734 mmHg 76%
    07:00 +1°C° 0 mm 5 m/s 734 mmHg 77%
    08:00 +1°C° 0 mm 6 m/s 735 mmHg 75%
    09:00 +2°C° 0 mm 6 m/s 735 mmHg 74%
    10:00 +2°C° 0 mm 6 m/s 736 mmHg 73%
    11:00 +2°C° 0.1 mm 6 m/s 736 mmHg 71%
    12:00 +2°C° 0.1 mm 6 m/s 736 mmHg 70%
    13:00 +2°C° 0.1 mm 6 m/s 737 mmHg 68%
    14:00 +2°C° 0.1 mm 6 m/s 737 mmHg 70%
    15:00 +2°C° 0.1 mm 5 m/s 737 mmHg 72%
    16:00 +1°C° 0.1 mm 4 m/s 737 mmHg 74%
    17:00 +1°C° 0 mm 4 m/s 737 mmHg 76%
    18:00 0°C° 0 mm 4 m/s 737 mmHg 78%
    19:00 0°C° 0 mm 4 m/s 737 mmHg 80%
    20:00 0°C° 0 mm 4 m/s 737 mmHg 82%
    21:00 0°C° 0 mm 4 m/s 737 mmHg 83%
    22:00 -1°C° 0 mm 4 m/s 737 mmHg 85%
    23:00 0°C° 0.1 mm 4 m/s 737 mmHg 85%

    Amanhã, 11 Dezembro, Terça-feira

    Tempo Temperatura Precipitação Vento Pressão Humidade
    00:00 0°C° 0.1 mm 4 m/s 737 mmHg 85%
    01:00 0°C° 0.1 mm 4 m/s 737 mmHg 85%
    02:00 +1°C° 0.3 mm 3 m/s 737 mmHg 86%
    03:00 +1°C° 0.3 mm 3 m/s 737 mmHg 87%
    04:00 +1°C° 0.3 mm 3 m/s 737 mmHg 88%
    05:00 +2°C° 0.1 mm 2 m/s 738 mmHg 89%
    06:00 +2°C° 0.1 mm 2 m/s 738 mmHg 90%
    07:00 +2°C° 0.1 mm 2 m/s 738 mmHg 92%
    08:00 +2°C° 0 mm 2 m/s 739 mmHg 91%
    09:00 +2°C° 0 mm 2 m/s 739 mmHg 90%
    10:00 +2°C° 0 mm 2 m/s 740 mmHg 89%
    11:00 +2°C° 0 mm 2 m/s 740 mmHg 88%
    12:00 +3°C° 0 mm 2 m/s 741 mmHg 87%
    13:00 +3°C° 0 mm 2 m/s 741 mmHg 86%
    14:00 +2°C° 0 mm 3 m/s 742 mmHg 87%
    15:00 +1°C° 0 mm 3 m/s 742 mmHg 87%
    16:00 +1°C° 0 mm 3 m/s 743 mmHg 88%
    17:00 +1°C° 0 mm 3 m/s 743 mmHg 88%
    18:00 0°C° 0 mm 3 m/s 744 mmHg 88%
    19:00 0°C° 0 mm 3 m/s 744 mmHg 89%
    20:00 0°C° 0 mm 3 m/s 745 mmHg 89%
    21:00 +1°C° 0 mm 2 m/s 745 mmHg 90%
    22:00 -1°C° 0 mm 2 m/s 746 mmHg 91%
    23:00 -1°C° 0 mm 2 m/s 746 mmHg 91%

    Depois de amanhã, 12 Dezembro, Quarta-feira

    Tempo Temperatura Precipitação Vento Pressão Humidade
    00:00 -1°C° 0 mm 2 m/s 747 mmHg 92%
    01:00 -1°C° 0 mm 2 m/s 747 mmHg 93%
    02:00 -1°C° 0 mm 2 m/s 747 mmHg 93%
    03:00 -2°C° 0 mm 2 m/s 748 mmHg 93%
    04:00 -2°C° 0 mm 2 m/s 748 mmHg 93%
    05:00 -2°C° 0 mm 2 m/s 748 mmHg 93%
    06:00 0°C° 0 mm 1 m/s 749 mmHg 93%
    07:00 0°C° 0 mm 1 m/s 749 mmHg 93%
    08:00 +1°C° 0 mm 1 m/s 749 mmHg 91%
    09:00 +1°C° 0 mm 1 m/s 750 mmHg 89%
    10:00 +2°C° 0 mm 1 m/s 750 mmHg 87%
    11:00 +2°C° 0 mm 1 m/s 750 mmHg 85%
    12:00 +3°C° 0 mm 1 m/s 750 mmHg 84%
    13:00 +3°C° 0 mm 1 m/s 750 mmHg 82%
    14:00 +3°C° 0 mm 1 m/s 750 mmHg 86%
    15:00 +2°C° 0 mm 1 m/s 750 mmHg 89%
    16:00 +2°C° 0 mm 1 m/s 750 mmHg 92%
    17:00 +2°C° 0 mm 1 m/s 750 mmHg 93%
    18:00 +1°C° 0 mm 1 m/s 751 mmHg 94%
    19:00 +1°C° 0 mm 1 m/s 751 mmHg 94%
    20:00 -1°C° 0 mm 2 m/s 751 mmHg 94%
    21:00 -1°C° 0 mm 2 m/s 751 mmHg 94%
    22:00 -1°C° 0 mm 2 m/s 751 mmHg 94%
    23:00 -1°C° 0 mm 2 m/s 751 mmHg 94%

    13 Dezembro, Quinta-feira

    Tempo Temperatura Precipitação Vento Pressão Humidade
    00:00 -1°C° 0 mm 2 m/s 751 mmHg 93%
    01:00 -1°C° 0 mm 2 m/s 751 mmHg 92%
    02:00 -1°C° 0 mm 2 m/s 751 mmHg 91%
    03:00 -1°C° 0 mm 2 m/s 751 mmHg 91%
    04:00 -1°C° 0 mm 2 m/s 750 mmHg 90%
    05:00 -1°C° 0 mm 2 m/s 750 mmHg 90%
    06:00 -1°C° 0 mm 2 m/s 750 mmHg 90%
    07:00 -1°C° 0 mm 2 m/s 750 mmHg 90%
    08:00 -1°C° 0 mm 2 m/s 750 mmHg 88%
    09:00 -1°C° 0 mm 2 m/s 750 mmHg 86%
    10:00 +1°C° 0 mm 2 m/s 750 mmHg 83%
    11:00 0°C° 0 mm 3 m/s 749 mmHg 82%
    12:00 0°C° 0 mm 3 m/s 749 mmHg 80%
    13:00 0°C° 0 mm 3 m/s 749 mmHg 78%
    14:00 +1°C° 0 mm 2 m/s 749 mmHg 80%
    15:00 -1°C° 0 mm 2 m/s 749 mmHg 82%
    16:00 -1°C° 0 mm 2 m/s 749 mmHg 84%
    17:00 -1°C° 0 mm 2 m/s 749 mmHg 85%
    18:00 -2°C° 0 mm 2 m/s 749 mmHg 87%
    19:00 -2°C° 0 mm 2 m/s 749 mmHg 88%
    20:00 -2°C° 0 mm 2 m/s 749 mmHg 88%
    21:00 0°C° 0 mm 1 m/s 750 mmHg 89%
    22:00 0°C° 0 mm 1 m/s 750 mmHg 89%
    23:00 0°C° 0 mm 1 m/s 750 mmHg 89%

    14 Dezembro, Sexta-feira

    Tempo Temperatura Precipitação Vento Pressão Humidade
    00:00 0°C° 0 mm 1 m/s 750 mmHg 90%
    01:00 -2°C° 0 mm 2 m/s 751 mmHg 90%
    02:00 -2°C° 0 mm 2 m/s 751 mmHg 91%
    03:00 0°C° 0 mm 1 m/s 751 mmHg 93%
    04:00 0°C° 0 mm 1 m/s 751 mmHg 94%
    05:00 -3°C° 0 mm 2 m/s 752 mmHg 94%
    06:00 -3°C° 0 mm 2 m/s 752 mmHg 94%
    07:00 -3°C° 0 mm 2 m/s 752 mmHg 95%
    08:00 -2°C° 0 mm 2 m/s 753 mmHg 93%
    09:00 -2°C° 0 mm 2 m/s 753 mmHg 91%
    10:00 -1°C° 0 mm 2 m/s 754 mmHg 89%
    11:00 -1°C° 0 mm 2 m/s 754 mmHg 87%
    12:00 -1°C° 0 mm 2 m/s 755 mmHg 85%
    13:00 +1°C° 0 mm 2 m/s 755 mmHg 83%
    14:00 -1°C° 0 mm 2 m/s 755 mmHg 86%
    15:00 -1°C° 0 mm 2 m/s 755 mmHg 89%
    16:00 -2°C° 0 mm 2 m/s 756 mmHg 91%
    17:00 -2°C° 0 mm 2 m/s 756 mmHg 91%
    18:00 -2°C° 0 mm 2 m/s 756 mmHg 92%
    19:00 -2°C° 0 mm 2 m/s 757 mmHg 92%
    20:00 -2°C° 0 mm 2 m/s 757 mmHg 92%
    21:00 -2°C° 0 mm 2 m/s 757 mmHg 91%
    22:00 -2°C° 0 mm 2 m/s 757 mmHg 91%
    23:00 0°C° 0 mm 1 m/s 758 mmHg 91%

    15 Dezembro, Sábado

    Tempo Temperatura Precipitação Vento Pressão Humidade
    00:00 0°C° 0 mm 1 m/s 758 mmHg 91%
    01:00 0°C° 0 mm 1 m/s 758 mmHg 91%
    02:00 0°C° 0 mm 1 m/s 758 mmHg 91%
    03:00 0°C° 0 mm 1 m/s 759 mmHg 90%
    04:00 0°C° 0 mm 1 m/s 759 mmHg 90%
    05:00 -2°C° 0 mm 2 m/s 759 mmHg 89%
    06:00 -2°C° 0 mm 2 m/s 759 mmHg 89%
    07:00 -2°C° 0 mm 2 m/s 759 mmHg 89%
    08:00 -2°C° 0 mm 2 m/s 760 mmHg 87%
    09:00 -1°C° 0 mm 2 m/s 760 mmHg 85%
    10:00 -1°C° 0 mm 2 m/s 760 mmHg 83%
    11:00 -1°C° 0 mm 2 m/s 760 mmHg 81%
    12:00 -1°C° 0 mm 2 m/s 760 mmHg 80%
    13:00 +1°C° 0 mm 2 m/s 760 mmHg 78%
    14:00 -1°C° 0 mm 2 m/s 760 mmHg 82%
    15:00 -2°C° 0 mm 2 m/s 760 mmHg 86%
    16:00 -2°C° 0 mm 2 m/s 760 mmHg 89%
    17:00 -2°C° 0 mm 2 m/s 760 mmHg 90%
    18:00 -4°C° 0 mm 3 m/s 760 mmHg 91%
    19:00 -4°C° 0 mm 3 m/s 760 mmHg 92%
    20:00 -4°C° 0 mm 3 m/s 760 mmHg 92%
    21:00 -4°C° 0 mm 3 m/s 760 mmHg 91%
    22:00 -4°C° 0 mm 3 m/s 760 mmHg 90%
    23:00 -4°C° 0 mm 3 m/s 760 mmHg 90%
    Mostrar mais